Regional Weather Roundup
Issued by NWS Little Rock, AR

Home | Current Version | Previous Version | Graphics & Text | Print | Product List | Glossary On
Versions: 1 2 3 4 5 6 7 8 9 10 11 12 13 14 15 16 17 18 19 20 21 22 23 24 25 26 27 28 29 30 31 32 33 34 35 36 37 38 39 40 41 42 43 44 45 46 47 48 49 50
501
ASUS44 KLZK 210205
RWRLZK

WEATHER ROUNDUP FOR ARKANSAS
NATIONAL WEATHER SERVICE LITTLE ROCK AR
900 PM CDT FRI OCT 20 2017

NOTE: "FAIR" INDICATES FEW OR NO CLOUDS BELOW 12,000 FEET WITH NO
SIGNIFICANT WEATHER AND/OR OBSTRUCTIONS TO VISIBILITY.

ARZ001-003-010-029-210300-
NORTHWEST ARKANSAS

CITY           SKY/WX    TMP DP  RH WIND       PRES   REMARKS
FAYETTEVILLE   PTCLDY    66  58  75 SE8       29.99R
FORT SMITH     CLOUDY    70  60  70 E13G21    29.98F
HARRISON       CLOUDY    64  59  83 SE13      30.03S
BENTONVILLE    PTCLDY    65  58  78 SE15      29.99F
ROGERS         PTCLDY    65  58  78 SE16      29.99S
SILOAM SPGS    CLEAR     65  59  81 SE13G20   29.98S
HIGHFILL       PTCLDY    65  58  78 SE14      29.98S
SPRINGDALE     CLEAR     66  59  77 SE14G20   30.01S
$$

ARZ004-005-016-210300-
NORTH CENTRAL ARKANSAS

CITY           SKY/WX    TMP DP  RH WIND       PRES   REMARKS
BATESVILLE     PTCLDY    66  58  75 SE5       30.09S
FLIPPIN        MOCLDY    65  59  81 SE3       30.04F
MTN HOME       MOCLDY    64  59  83 S6        30.03F
$$

ARZ040-041-210300-
WEST CENTRAL ARKANSAS

CITY           SKY/WX    TMP DP  RH WIND       PRES   REMARKS
MENA           CLEAR     66  64  94 E5        30.03S
$$

ARZ009-017-025-026-028-210300-
NORTHEAST ARKANSAS

CITY           SKY/WX    TMP DP  RH WIND       PRES   REMARKS
JONESBORO      MOCLDY    65  56  72 SE5       30.10R
NEWPORT        CLOUDY    64  55  72 SE9       30.08F
WALNUT RIDGE   CLOUDY    64  53  67 SE8       30.09S
BLYTHEVILLE    CLOUDY    63  55  75 SE6       30.11F
$$

ARZ022-023-033-042-044-210300-
CENTRAL ARKANSAS

CITY           SKY/WX    TMP DP  RH WIND       PRES   REMARKS
LITTLE ROCK    MOCLDY    63  60  90 CALM      30.06F
N LITTLE ROCK    N/A     66  58  75 S3        30.07F
JACKSONVILLE   MOCLDY    62  58  87 CALM      30.06S
SEARCY         CLOUDY    65  63  93 CALM      30.08S
HOT SPRINGS    CLOUDY    64  60  87 E6        30.05F
RUSSELLVILLE   CLOUDY    64  60  87 CALM      30.04S
CLINTON        CLOUDY    61  61 100 CALM      30.06F
$$

ARZ036-210300-
EAST ARKANSAS

CITY           SKY/WX    TMP DP  RH WIND       PRES   REMARKS
WEST MEMPHIS   CLOUDY    61  58  90 CALM      30.09S
$$

ARZ050-053-066-070-073-210300-
SOUTHWEST ARKANSAS

CITY           SKY/WX    TMP DP  RH WIND       PRES   REMARKS
ARKADELPHIA    FAIR      58  57  97 CALM      30.04F
CAMDEN         PTCLDY    61  57  88 CALM      30.04S
TEXARKANA      CLOUDY    67  60  78 SE7       30.02S
EL DORADO      PTCLDY    60  60 100 E3        30.05S
DE QUEEN       CLEAR     68  60  75 E7        29.99S
$$

ARZ056-057-069-210300-
SOUTHEAST ARKANSAS

CITY           SKY/WX    TMP DP  RH WIND       PRES   REMARKS
PINE BLUFF     PTCLDY    60  54  80 E5        30.07S
STUTTGART      PTCLDY    65  57  75 E5        30.08R
MONTICELLO     PTCLDY    63  60  90 CALM      30.06F

$$






USA.gov is the U.S. government's official web portal to all federal, state and local government web resources and services.